Flag for Switzerland Weather past 2 weeks in Liestal, Basel-Land, Switzerland

Now
50 °F

Passing clouds.


Feels Like: 46 °F
Forecast: 44 / 55 °F
Wind: 12 mph from West

Location: Bale-Mulhouse

Current Time: Mar 30, 2015 at 10:54:53 PM

Latest Report: Mar 30, 2015 at 10:30 PM


Visibility: N/A

Pressure: 30.01 "Hg

Humidity: 67%

Dew point: 39 °F

Location of LiestalLocation

Historic Weather in Liestal — Graph

°F

Liestal temperature yesterday

Maximum temperature yesterday: 55 °F (at 6:00 PM)
Minimum temperature yesterday: 46 °F (at 1:00 AM)
Average temperature yesterday: 52 °F

Past Weeks' High & Low Weather Summary

 TemperatureHumidityPressure
High64 °F (Mar 17, 3:30 PM)100% (Mar 16, 8:00 AM)30.27 "Hg (Mar 16, 8:00 AM)
Low30 °F (Mar 17, 4:00 AM)37% (Mar 17, 3:30 PM)29.62 "Hg (Mar 25, 6:00 AM)
Average46 °F73%30.01 "Hg
* Reported Mar 15 8:00 PM — Mar 30 9:30 PM, Liestal, Weather by CustomWeather, © 2015

Note: Actual official high and low records may vary slightly from our data, if they occured in-between our weather recording intervals... More about our weather records

Advertising

Liestal weather history for previous 24 hours

 ConditionsComfort  
Time TempWeatherWind HumidityBarometerVisibility
9:30 PM
Mon, Mar 30
50 °FPassing clouds.10 mph67%30.01 "HgN/A
9:00 PM50 °FPassing clouds.12 mph67%30.01 "HgN/A
8:30 PM50 °FPartly sunny.10 mph62%30.01 "HgN/A
8:00 PM50 °FPartly sunny.7 mph62%29.98 "HgN/A
7:30 PM52 °FPartly sunny.7 mph58%29.98 "HgN/A
7:00 PM52 °FPartly sunny.10 mph58%29.98 "HgN/A
6:30 PM52 °FPartly sunny.10 mph58%29.98 "HgN/A
6:00 PM52 °FPartly sunny.13 mph54%29.95 "HgN/A
5:30 PM52 °FPartly sunny.12 mph58%29.95 "HgN/A
5:00 PM54 °FBroken clouds.18 mph58%29.92 "HgN/A
4:30 PM54 °FPartly sunny.14 mph58%29.92 "HgN/A
4:00 PM54 °FPartly sunny.16 mph63%29.92 "HgN/A
3:30 PM54 °FScattered clouds.18 mph63%29.89 "HgN/A
3:00 PM54 °FPartly sunny.16 mph63%29.89 "HgN/A
2:30 PM54 °FBroken clouds.15 mph58%29.89 "HgN/A
2:00 PM54 °FPartly sunny.16 mph67%29.86 "HgN/A
1:30 PM54 °FPartly sunny.16 mph72%29.83 "HgN/A
1:00 PM52 °FBroken clouds.18 mph72%29.83 "HgN/A
12:30 PM52 °FPartly sunny.20 mph72%29.83 "HgN/A
12:00 PM52 °FPartly sunny.15 mph77%29.83 "HgN/A
11:30 AM52 °FPartly sunny.17 mph77%29.80 "HgN/A
11:00 AM52 °FPartly sunny.12 mph82%29.80 "HgN/A
10:30 AM52 °FPartly sunny.13 mph82%29.77 "HgN/A
10:00 AM52 °FPartly sunny.9 mph82%29.74 "HgN/A
9:30 AM50 °FPartly sunny.9 mph94%29.74 "Hg5 mi
9:00 AM50 °FRain. Partly sunny.18 mph88%29.71 "Hg2 mi
8:30 AM54 °FLight rain. Partly sunny.23 mph82%29.68 "Hg6 mi
8:00 AM54 °FPassing clouds.23 mph77%29.68 "HgN/A
7:30 AM52 °FPassing clouds.21 mph82%29.68 "HgN/A
7:00 AM52 °FPassing clouds.22 mph82%29.65 "HgN/A
6:30 AM52 °FPartly cloudy.22 mph82%29.65 "HgN/A
6:00 AM52 °FLight rain. Mostly cloudy.24 mph82%29.65 "HgN/A
5:30 AM52 °FLight rain. Overcast.21 mph82%29.65 "HgN/A
4:30 AM52 °FLight rain. Mostly cloudy.20 mph82%29.65 "HgN/A
4:00 AM52 °FLight rain. Mostly cloudy.21 mph82%29.65 "HgN/A
3:30 AM52 °FPassing clouds.21 mph82%29.68 "HgN/A
3:00 AM52 °FPartly cloudy.18 mph82%29.68 "HgN/A
2:30 AM52 °FPartly cloudy.20 mph82%29.68 "HgN/A
2:00 AM52 °FLight rain. Partly cloudy.17 mph82%29.71 "HgN/A
1:00 AM52 °FLight rain. Passing clouds.20 mph82%29.74 "HgN/A
12:30 AM52 °FPassing clouds.23 mph82%29.71 "HgN/A
12:00 AM52 °FLight rain. Partly cloudy.21 mph82%29.74 "HgN/A
11:00 PM
Sun, Mar 29
52 °FLight rain. Mostly cloudy.20 mph82%29.74 "HgN/A
10:30 PM52 °FLight rain. Passing clouds.18 mph88%29.77 "HgN/A
10:00 PM52 °FLight rain. Partly cloudy.20 mph82%29.77 "HgN/A
Weather by CustomWeather, © 2015

See weather overviewHow to use our weather pages